星链-4383 (STARLINK-4383 )

导读

STARLINK-4383是美国SpaceX星链计划中的卫星,于2022年8月12日发射升空,属于星链星座组网的组成部分。星链计划旨在构建全球卫星互联网,该卫星承担低轨网络通信任务,为全球多地提供宽带互联网接入服务,助力全球网络覆盖建设。

基本信息
目录编号:
53473
目录名称:
STARLINK-4383
国际标识:
2022-099J
轨道中心:
EARTH
卫星名称:
星链-4383
卫星全名:
星链-4383 (STARLINK-4383 )
卫星状态:
在轨 (已飞行1405 天)
发射日期:
2022-08-12 UTC
国别 :
美国 (US)
星等 :
--
轨道信息
数据来源 国际轨道数据
星历时间: 2026-06-17T12:00:02+0800
6小时前
查看轨道信息
半长轴: 6830.173km
偏心率: 0.0001185
轨道倾角: 97.602°
近地点辐角 90.569°
升交点赤经 290.685°
平近点角 63.172°
近地点: 451.226km
远地点: 452.846km
周期: 93.628分钟
每日圈数: 15.379963
详细信息
固有亮度:
5
最大亮度:
2.5
卫星平台:
Starlink v1.5
覆盖范围:
全球
运营商:
太空探索技术公司
运营商所在国:
美国
制造商(研发单位):
太空探索技术公司
制造商所在国:
美国
使用方式:
暂无
卫星简介
星链(Starlink)计划是由太空探索技术公司(SpaceX)提出的一个巨型低轨卫星互联网星座项目,计划在2019年至2024年间在太空搭建由约1.2万颗卫星组成的“星链”网络,其中1584颗将部署在地球上空550千米处的近地轨道,并从2020年开始工作。该卫星仍在工作。
2D轨道图
3D轨道图
轨道高度分析图
轨道倾角分析图
轨道综合分析图
查看轨道综合分析图